Regional Weather Roundup
Issued by NWS

Home | Current Version | Previous Version | Graphics & Text | Print | Product List | Glossary On
Versions: 1 2 3 4 5 6 7 8 9 10 11 12 13 14 15 16 17 18 19 20 21 22 23 24 25 26 27 28 29 30 31 32 33 34 35 36 37 38 39 40 41 42 43 44 45 46 47 48 49 50
000
ASUS43 KOAX 270302
RWRNE

WEATHER ROUNDUP FOR NEBRASKA
NATIONAL WEATHER SERVICE OMAHA NE
1000 PM CDT TUE AUG 26 2014

NOTES: SATELLITE DATA IS BEING USED TO AUGMENT CLOUD COVER ABOVE
       12000 FEET.
       "FAIR" INDICATES FEW OR NO CLOUDS BELOW 12,000 FEET WITH NO
       SIGNIFICANT WEATHER AND/OR OBSTRUCTIONS TO VISIBILITY.

  * THESE STATIONS DO NOT REPORT WEATHER SUCH AS RAIN...SNOW OR FOG.

NEZ001>004-019>022-054>056-270400-
NEBRASKA PANHANDLE

CITY           SKY/WX    TMP DP  RH WIND       PRES   REMARKS
SCOTTSBLUFF    MOCLDY    68  58  70 SE7       30.13R
ALLIANCE       CLOUDY    70  61  73 SE9       30.16R
CHADRON        LGT RAIN  69  62  78 E5        30.13R
KIMBALL        CLOUDY    64  50  61 N8        30.19S
SIDNEY         MOCLDY    68  62  81 SE9       30.18R
$$

NEZ057>060-069>072-079>082-270400-
SOUTHWEST NEBRASKA

CITY           SKY/WX    TMP DP  RH WIND       PRES   REMARKS
NORTH PLATTE   MOCLDY    67  65  93 E8        30.12R
IMPERIAL       MOCLDY    70  64  81 E6        30.12S
LEXINGTON      PTCLDY    72  69  89 E9        30.12S
MCCOOK         CLOUDY    73  67  81 E9        30.10R
OGALLALA       MOCLDY    67  62  82 NE3       30.14R
$$

NEZ005>010-023>029-035>040-094-270400-
NORTH CENTRAL NEBRASKA

CITY           SKY/WX    TMP DP  RH WIND       PRES   REMARKS
VALENTINE      MOCLDY    72  62  71 E7        30.11R
AINSWORTH      MOCLDY    68  63  84 SE10      30.14R
BROKEN BOW     MOCLDY    70  66  87 SE7       30.13R
O`NEILL        PTCLDY    67  65  91 SE7       30.15R
ORD            PTCLDY    67  65  93 CALM      30.13R
THEDFORD       MOCLDY    70  63  79 SE7       30.15R
$$

NEZ041-046>049-061>064-073>077-083>087-270400-
SOUTH CENTRAL NEBRASKA

CITY           SKY/WX    TMP DP  RH WIND       PRES   REMARKS
GRAND ISLAND   PTCLDY    71  67  87 E9        30.13R
AURORA         CLEAR     69  69  99 E7        30.12R
HASTINGS       PTCLDY    71  66  84 E6        30.11R
HEBRON         MOCLDY    76  68  75 E5        30.10R
HOLDREGE       CLOUDY    72  69  91 CALM      30.12R
KEARNEY *      PTCLDY    70  68  94 NE7       30.13R
YORK           CLEAR     68 N/A N/A E7        30.12S
$$

NEZ011>018-030>034-042>045-270400-
NORTHEAST NEBRASKA

CITY           SKY/WX    TMP DP  RH WIND       PRES   REMARKS
NORFOLK        MOCLDY    67  62  84 E6        30.14R
ALBION         CLOUDY    69  64  84 E7        30.15R
BLAIR          MOCLDY    71  67  87 NE5       30.13R
FREMONT        MOCLDY    72  66  80 E6        30.13S
TEKAMAH        MOCLDY    69  66  90 NE6       30.13R
WAYNE          CLOUDY    65  62  92 E3        30.16R
$$

NEZ050>053-065>068-078-088>093-270400-
SOUTHEAST NEBRASKA

CITY           SKY/WX    TMP DP  RH WIND       PRES   REMARKS
LINCOLN        CLEAR     73  67  81 E8        30.12R
OMAHA EPPLEY   MOCLDY    73  66  78 E3        30.12R
BEATRICE       CLEAR     74  68  82 E6        30.10R
FALLS CITY     CLEAR     74  71  91 E7        30.09S
NEBRASKA CITY  PTCLDY    69  69 100 NE3       30.12R
PLATTSMOUTH    PTCLDY    71  67  87 E3        30.12S
$$

NEZ044-045-051>053-067-270400-
OMAHA AREA

CITY           SKY/WX    TMP DP  RH WIND       PRES   REMARKS
OMAHA EPPLEY   MOCLDY    73  66  78 E3        30.12R
BLAIR          MOCLDY    71  67  87 NE5       30.13R
FREMONT        MOCLDY    72  66  80 E6        30.13S
MILLARD        MOCLDY    74  67  77 E6        30.11S
OFFUTT AFB     MOCLDY    71  71  99 E5        30.11R
PLATTSMOUTH    PTCLDY    71  67  87 E3        30.12S
WAHOO          MOCLDY    70  66  86 NE3       30.12S
$$



USA.gov is the U.S. government's official web portal to all federal, state and local government web resources and services.